Buffalo, NY

11:51 AM EST on December 13, 2019 (GMT -0500)
Buffalo Niagara International

Weather History for KBUF - August, 2019

Change the Weather History Date:

Monday, August 12, 2019

  Actual Average Record
Temperature  
Mean Temperature 73 °F 70 °F  
Max Temperature 83 °F 79 °F 93 °F (1988)
Min Temperature 63 °F 62 °F 49 °F (1967)
Degree Days  
Heating Degree Days 0 0  
Month to date heating degree days 0 0  
Since 1 June heating degree days 62 73  
Since 1 July heating degree days 0 9  
Cooling Degree Days 8 6  
Month to date cooling degree days 79 72  
Year to date cooling degree days 447 398  
Since 1 June cooling degree days 439 372  
Growing Degree Days 22 (Base 50)    
Moisture  
Dew Point 60 °F    
Average Humidity 62    
Maximum Humidity 79    
Minimum Humidity 45    
Precipitation  
Precipitation 0.00 in 0.11 in 0.97 in (1908)
Month to date precipitation 0.35 1.31  
Year to date precipitation 25.10 23.21  
Snow  
Snow 0.00 in 0.00 in 0.00 in ()
Month to date snowfall 0.0 0.0  
Since 1 June snowfall 0.0 0.0  
Since 1 July snowfall 0.0 0.0  
Snow Depth 0.00 in    
Sea Level Pressure  
Sea Level Pressure 29.91 in    
Wind  
Wind Speed 10 mph (SW)    
Max Wind Speed 18 mph    
Max Gust Speed 24 mph    
Visibility 10 miles    
Events      
T = Trace of Precipitation, MM = Missing Value Source: NWS Daily Summary

Daily Weather History Graph

Daily Weather History Graph

Search for Another Location

Airport or City:

Astronomy

Aug. 12, 2019 Rise Set
Actual Time 6:17 AM EDT 8:21 PM EDT
Civil Twilight 5:46 AM EDT 8:52 PM EDT
Nautical Twilight 5:08 AM EDT 9:30 PM EDT
Astronomical Twilight 4:26 AM EDT 10:11 PM EDT
Moon 6:53 PM EDT (8/12) 3:21 AM EDT (8/12)
Length of Visible Light 15h 06m
Length of Day
14h 04m
Waxing Gibbous, 93% of the Moon is Illuminated
Aug 12
Waxing Gibbous
Aug 15
Full
Aug 23
Last Quarter
Aug 30
New
Sep 5
First Quarter

Hourly Weather History & Observations

Time (EDT) Temp. Heat Index Dew Point Humidity Pressure Visibility Wind Dir Wind Speed Gust Speed Precip Events Conditions
12:54 AM 64.9 °F - 55.9 °F 73% 29.98 in 10.0 mi South 5.8 mph - N/A   Clear
1:54 AM 64.0 °F - 55.9 °F 75% 29.98 in 10.0 mi SSW 5.8 mph - N/A   Partly Cloudy
2:54 AM 64.0 °F - 55.9 °F 75% 29.97 in 10.0 mi South 5.8 mph - N/A   Partly Cloudy
3:54 AM 63.0 °F - 55.9 °F 78% 29.97 in 10.0 mi South 5.8 mph - N/A   Clear
4:54 AM 64.9 °F - 57.0 °F 75% 29.96 in 10.0 mi South 6.9 mph - N/A   Scattered Clouds
5:54 AM 64.9 °F - 57.9 °F 78% 29.95 in 10.0 mi South 6.9 mph - N/A   Mostly Cloudy
6:54 AM 66.9 °F - 57.9 °F 73% 29.96 in 10.0 mi SSW 6.9 mph - N/A   Mostly Cloudy
7:54 AM 69.1 °F - 59.0 °F 70% 29.96 in 10.0 mi SSW 6.9 mph - N/A   Mostly Cloudy
8:54 AM 70.0 °F - 59.0 °F 68% 29.96 in 10.0 mi SSW 8.1 mph - N/A   Mostly Cloudy
9:54 AM 73.9 °F - 60.1 °F 62% 29.96 in 10.0 mi SW 9.2 mph - N/A   Mostly Cloudy
10:54 AM 75.0 °F - 60.1 °F 60% 29.95 in 10.0 mi SSW 12.7 mph - N/A   Mostly Cloudy
11:54 AM 78.1 °F - 63.0 °F 60% 29.94 in 10.0 mi SW 12.7 mph - N/A   Mostly Cloudy
12:54 PM 80.1 °F 81.5 °F 63.0 °F 56% 29.91 in 10.0 mi WSW 11.5 mph - N/A   Scattered Clouds
1:54 PM 82.0 °F 82.7 °F 61.0 °F 49% 29.90 in 10.0 mi SW 16.1 mph - N/A   Partly Cloudy
1:56 PM 82.0 °F 82.7 °F 61.0 °F 49% 29.91 in 10.0 mi SW 15.0 mph - N/A   Partly Cloudy
2:54 PM 81.0 °F 81.6 °F 60.1 °F 49% 29.88 in 10.0 mi SW 16.1 mph - N/A   Scattered Clouds
3:54 PM 81.0 °F 81.1 °F 57.9 °F 45% 29.86 in 10.0 mi WSW 12.7 mph 21.9 mph N/A   Mostly Cloudy
4:54 PM 81.0 °F 81.3 °F 59.0 °F 47% 29.85 in 10.0 mi SW 11.5 mph - N/A   Overcast
5:54 PM 80.1 °F 81.1 °F 61.0 °F 52% 29.84 in 10.0 mi SW 12.7 mph - N/A   Mostly Cloudy
6:54 PM 78.1 °F - 64.0 °F 62% 29.83 in 10.0 mi SW 13.8 mph - N/A   Mostly Cloudy
7:54 PM 75.9 °F - 63.0 °F 64% 29.84 in 10.0 mi WSW 8.1 mph - N/A   Mostly Cloudy
8:54 PM 75.0 °F - 66.0 °F 73% 29.84 in 10.0 mi SW 9.2 mph - N/A   Overcast
9:54 PM 75.0 °F - 66.9 °F 76% 29.84 in 10.0 mi SW 8.1 mph - N/A   Overcast
10:54 PM 73.9 °F - 66.9 °F 79% 29.83 in 10.0 mi SW 8.1 mph - N/A   Overcast
11:54 PM 73.9 °F - 64.0 °F 71% 29.82 in 10.0 mi SW 9.2 mph - N/A   Overcast